This demonstration page uses our WeatherBlox Daily Observations layout. Learn more.

Left ArrowRight Arrow

41.86663, -103.66717

Hourly Observations for November 13, 2016

Temp ( °F °C ) Dew Point ( °F °C ) Humidity (%) Winds ( mph kmh ) Pressure ( in mb ) Visibility ( mi km ) Precip ( " mm )
12:53 am 00:53 Clear with Light Snow 36 2.2 25 -3.9 64 64 ENE 5 7 29.98 1015 10 16 N/A
1:53 am 01:53 Clear 35 1.7 25 -3.9 67 67 NE 5 7 29.96 1015 10 16 N/A
2:53 am 02:53 Clear 38 3.3 26 -3.3 62 62 NNW 6 9 29.93 1014 10 16 N/A
3:53 am 03:53 Clear 40 4.4 28 -2.2 63 63 WNW 8 13 29.94 1014 9 14 N/A
4:53 am 04:53 Clear with Light Snow 38 3.3 27 -2.8 65 65 WNW 8 13 30.00 1016 9 14 N/A
5:53 am 05:53 Clear with Light Snow 38 3.3 26 -3.3 62 62 NW 10 17 30.02 1017 9 14 N/A
6:53 am 06:53 Sunny with Light Snow 38 3.3 27 -2.8 65 65 NW 10 17 30.05 1018 9 14 N/A
7:53 am 07:53 Sunny 45 7.2 29 -1.7 54 54 NW 8 13 30.07 1018 10 16 N/A
8:53 am 08:53 Sunny 51 10.6 31 -0.6 46 46 WNW 12 19 30.08 1019 10 16 N/A
9:53 am 09:53 Sunny 59 15 31 -0.6 35 35 W 13 20 30.07 1018 10 16 N/A
10:53 am 10:53 Mostly Cloudy 63 17.2 30 -1.1 29 29 WNW 13 20 30.05 1018 10 16 N/A
11:53 am 11:53 Cloudy 64 17.8 29 -1.7 27 27 WNW 12 19 30.05 1018 10 16 N/A
12:53 pm 12:53 Mostly Cloudy 68 20 29 -1.7 23 23 N 12 19 30.04 1017 10 16 N/A
1:53 pm 13:53 Cloudy 67 19.4 29 -1.7 24 24 N 8 13 30.04 1017 10 16 N/A
2:53 pm 14:53 Sunny 67 19.4 29 -1.7 24 24 N 7 11 30.03 1017 10 16 N/A
3:53 pm 15:53 Sunny 63 17.2 29 -1.7 28 28 N 6 9 30.04 1017 10 16 N/A
4:53 pm 16:53 Clear 51 10.6 27 -2.8 39 39 NNE 6 9 30.09 1019 10 16 N/A
5:53 pm 17:53 Clear 47 8.3 27 -2.8 46 46 NNE 12 19 30.11 1020 10 16 N/A
6:53 pm 18:53 Clear 46 7.8 28 -2.2 50 50 N N/A 30.14 1021 10 16 N/A
7:53 pm 19:53 Clear 41 5 27 -2.8 57 57 N 3 6 30.13 1020 10 16 N/A
8:53 pm 20:53 Clear 37 2.8 26 -3.3 65 65 N N/A 30.13 1020 10 16 N/A
9:53 pm 21:53 Clear with Light Snow 36 2.2 26 -3.3 67 67 NE 5 7 30.09 1019 9 14 N/A
10:53 pm 22:53 Clear with Light Snow 32 undefined 24 -4.4 73 73 N 5 7 30.09 1019 9 14 N/A
11:53 pm 23:53 Clear 34 1.1 25 -3.9 70 70 NNE 5 7 30.09 1019 10 16 N/A

Powered by AerisWeather